IGO0684 VOBL-VOHS

Flight info

Callsign IGO0684
Flight time 1h 0m
Altitude 29000
Route LATID8A LATID Q22 SAKRO SARKA8
Aircraft A21N/M-SDE3FGHIRWY/LB1

Departure

Time 2026-04-17 13:03
Airport Kempegowda International Airport Bengaluru (VOBL)

Arrival

Time 2026-04-17 14:04
Airport Rajiv Gandhi International Airport (VOHS)
Time Latitude Longitude Altitude Speed Heading
2026-04-17 12:24 13.20172 77.70585 3002 ft 0 kts 180°
2026-04-17 12:40 13.20185 77.70585 3002 ft 2 kts 180°
2026-04-17 12:40 13.20199 77.70585 3002 ft 2 kts 181°
2026-04-17 12:40 13.20213 77.70586 3002 ft 2 kts 180°
2026-04-17 12:41 13.20228 77.70586 3002 ft 2 kts 181°
2026-04-17 12:41 13.20242 77.70586 3002 ft 2 kts 180°
2026-04-17 12:41 13.20253 77.70586 3002 ft 1 kts 147°
2026-04-17 12:41 13.20259 77.70577 3002 ft 1 kts 90°
2026-04-17 12:42 13.20257 77.70563 3002 ft 2 kts 88°
2026-04-17 12:42 13.20257 77.70548 3002 ft 2 kts 91°
2026-04-17 12:42 13.20257 77.70534 3002 ft 0 kts 89°
2026-04-17 12:42 13.20257 77.70533 3002 ft 0 kts 89°
2026-04-17 12:47 13.20258 77.70541 3002 ft 3 kts 88°
2026-04-17 12:47 13.20259 77.70580 3002 ft 7 kts 90°
2026-04-17 12:47 13.20258 77.70657 3002 ft 13 kts 91°
2026-04-17 12:48 13.20257 77.70766 3002 ft 16 kts 91°
2026-04-17 12:48 13.20254 77.70881 3002 ft 15 kts 91°
2026-04-17 12:48 13.20255 77.70988 3002 ft 14 kts 89°
2026-04-17 12:48 13.20254 77.71098 3002 ft 16 kts 91°
2026-04-17 12:49 13.20253 77.71233 3002 ft 20 kts 91°
2026-04-17 12:49 13.20253 77.71267 3002 ft 0 kts 90°
2026-04-17 12:49 13.20253 77.71268 3002 ft 1 kts 90°
2026-04-17 12:49 13.20252 77.71316 3002 ft 11 kts 96°
2026-04-17 12:50 13.20212 77.71347 3002 ft 0 kts 162°
2026-04-17 12:50 13.20208 77.71349 3002 ft 2 kts 161°
2026-04-17 12:50 13.20207 77.71349 3002 ft 0 kts 160°
2026-04-17 12:50 13.20206 77.71349 3002 ft 0 kts 160°
2026-04-17 12:52 13.20205 77.71350 3002 ft 0 kts 143°
2026-04-17 12:52 13.20207 77.71375 3002 ft 7 kts 68°
2026-04-17 12:53 13.20238 77.71451 3002 ft 15 kts 68°
2026-04-17 12:53 13.20254 77.71578 3002 ft 21 kts 90°
2026-04-17 12:53 13.20252 77.71751 3002 ft 26 kts 91°
2026-04-17 12:53 13.20250 77.71937 3002 ft 25 kts 90°
2026-04-17 12:54 13.20247 77.72107 3002 ft 21 kts 90°
2026-04-17 12:54 13.20182 77.72211 3002 ft 16 kts 123°
2026-04-17 12:54 13.20171 77.72322 3002 ft 16 kts 90°
2026-04-17 12:54 13.20168 77.72440 3002 ft 16 kts 90°
2026-04-17 12:55 13.20128 77.72530 3002 ft 14 kts 168°
2026-04-17 12:55 13.20024 77.72530 3002 ft 15 kts 181°
2026-04-17 12:55 13.19908 77.72529 3002 ft 17 kts 180°
2026-04-17 12:55 13.19774 77.72530 3002 ft 20 kts 181°
2026-04-17 12:56 13.19628 77.72527 3002 ft 21 kts 181°
2026-04-17 12:56 13.19469 77.72523 3002 ft 23 kts 179°
2026-04-17 12:56 13.19303 77.72524 3002 ft 24 kts 179°
2026-04-17 12:56 13.19145 77.72522 3002 ft 16 kts 183°
2026-04-17 12:57 13.19098 77.72442 3002 ft 14 kts 271°
2026-04-17 12:57 13.19102 77.72338 3002 ft 15 kts 271°
2026-04-17 12:57 13.19103 77.72218 3002 ft 18 kts 271°
2026-04-17 12:57 13.19105 77.72076 3002 ft 22 kts 270°
2026-04-17 12:58 13.19106 77.71892 3002 ft 26 kts 271°
2026-04-17 12:58 13.19108 77.71708 3002 ft 25 kts 271°
2026-04-17 12:58 13.19109 77.71536 3002 ft 23 kts 270°
2026-04-17 12:58 13.19111 77.71368 3002 ft 23 kts 270°
2026-04-17 12:59 13.19113 77.71184 3002 ft 29 kts 271°
2026-04-17 12:59 13.19114 77.70966 3002 ft 28 kts 270°
2026-04-17 12:59 13.19116 77.70770 3002 ft 26 kts 270°
2026-04-17 12:59 13.19117 77.70584 3002 ft 26 kts 271°
2026-04-17 13:00 13.19120 77.70391 3002 ft 28 kts 270°
2026-04-17 13:00 13.19121 77.70180 3002 ft 28 kts 271°
2026-04-17 13:00 13.19123 77.69978 3002 ft 28 kts 271°
2026-04-17 13:00 13.19124 77.69770 3002 ft 29 kts 270°
2026-04-17 13:01 13.19127 77.69558 3002 ft 29 kts 271°
2026-04-17 13:01 13.19128 77.69362 3002 ft 27 kts 271°
2026-04-17 13:01 13.19130 77.69160 3002 ft 27 kts 270°
2026-04-17 13:01 13.19123 77.69029 3002 ft 16 kts 235°
2026-04-17 13:02 13.19020 77.69008 3002 ft 12 kts 177°
2026-04-17 13:02 13.18960 77.69048 3002 ft 12 kts 91°
2026-04-17 13:02 13.18957 77.69174 3002 ft 26 kts 91°
2026-04-17 13:02 13.18954 77.69473 3002 ft 70 kts 90°
2026-04-17 13:03 13.18947 77.70200 3002 ft 131 kts 90°
2026-04-17 13:03 13.18935 77.71313 3035 ft 177 kts 91°
2026-04-17 13:03 13.18915 77.72598 3530 ft 183 kts 91°
2026-04-17 13:03 13.19030 77.73907 4138 ft 188 kts 76°
2026-04-17 13:04 13.19537 77.75096 4908 ft 180 kts 66°
2026-04-17 13:04 13.20017 77.76283 5209 ft 186 kts 74°
2026-04-17 13:04 13.20311 77.77612 5434 ft 196 kts 82°
2026-04-17 13:04 13.20460 77.79044 5658 ft 208 kts 86°
2026-04-17 13:05 13.20526 77.80574 5885 ft 221 kts 88°
2026-04-17 13:05 13.20549 77.82215 6033 ft 239 kts 90°
2026-04-17 13:05 13.20551 77.83964 6294 ft 253 kts 90°
2026-04-17 13:05 13.20543 77.85817 6594 ft 266 kts 90°
2026-04-17 13:06 13.20540 77.87731 7088 ft 270 kts 87°
2026-04-17 13:06 13.21001 77.89583 7609 ft 274 kts 62°
2026-04-17 13:06 13.22215 77.91071 8181 ft 278 kts 39°
2026-04-17 13:06 13.23961 77.91934 8729 ft 284 kts 15°
2026-04-17 13:07 13.25950 77.92080 9337 ft 287 kts
2026-04-17 13:07 13.27968 77.92075 9936 ft 289 kts
2026-04-17 13:07 13.29991 77.92071 10436 ft 295 kts
2026-04-17 13:07 13.32079 77.91814 10684 ft 313 kts 348°
2026-04-17 13:08 13.34154 77.91000 10952 ft 325 kts 335°
2026-04-17 13:08 13.36147 77.89849 11020 ft 326 kts 332°
2026-04-17 13:08 13.38104 77.88652 11024 ft 326 kts 332°
2026-04-17 13:08 13.40067 77.87450 11026 ft 326 kts 332°
2026-04-17 13:09 13.42018 77.86268 11028 ft 326 kts 332°
2026-04-17 13:09 13.43961 77.85100 11027 ft 325 kts 332°
2026-04-17 13:09 13.45925 77.83924 11031 ft 325 kts 332°
2026-04-17 13:09 13.47892 77.82748 11033 ft 325 kts 332°
2026-04-17 13:10 13.49835 77.81587 11032 ft 326 kts 332°
2026-04-17 13:10 13.51832 77.80397 11034 ft 325 kts 332°
2026-04-17 13:10 13.53783 77.79263 11032 ft 325 kts 336°
2026-04-17 13:10 13.55938 77.78605 11023 ft 320 kts 356°
2026-04-17 13:11 13.58172 77.78696 11233 ft 323 kts 11°
2026-04-17 13:11 13.60358 77.79094 11872 ft 322 kts 12°
2026-04-17 13:11 13.62570 77.79510 12495 ft 323 kts 12°
2026-04-17 13:11 13.64781 77.79923 13063 ft 326 kts 12°
2026-04-17 13:12 13.67036 77.80338 13580 ft 330 kts 12°
2026-04-17 13:12 13.71608 77.81171 14516 ft 339 kts 12°
2026-04-17 13:12 13.73935 77.81593 14986 ft 342 kts 12°
2026-04-17 13:13 13.76324 77.82026 15453 ft 345 kts 12°
2026-04-17 13:13 13.78688 77.82451 15900 ft 349 kts 12°
2026-04-17 13:13 13.81090 77.82884 16331 ft 352 kts 12°
2026-04-17 13:13 13.83529 77.83324 16754 ft 355 kts 12°
2026-04-17 13:14 13.85967 77.83762 17158 ft 358 kts 12°
2026-04-17 13:14 13.88425 77.84206 17574 ft 361 kts 12°
2026-04-17 13:14 13.90933 77.84657 17993 ft 363 kts 12°
2026-04-17 13:14 13.93418 77.85107 18400 ft 366 kts 12°
2026-04-17 13:15 13.95937 77.85561 18826 ft 368 kts 12°
2026-04-17 13:15 13.98473 77.86019 19305 ft 369 kts 12°
2026-04-17 13:15 14.01034 77.86481 19725 ft 371 kts 12°
2026-04-17 13:15 14.03569 77.86939 20104 ft 374 kts 12°
2026-04-17 13:16 14.06143 77.87405 20483 ft 377 kts 12°
2026-04-17 13:16 14.08741 77.87872 20860 ft 380 kts 12°
2026-04-17 13:16 14.11387 77.88351 21248 ft 383 kts 12°
2026-04-17 13:16 14.14018 77.88826 21623 ft 385 kts 12°
2026-04-17 13:17 14.16667 77.89304 21995 ft 388 kts 12°
2026-04-17 13:17 14.19335 77.89786 22353 ft 391 kts 12°
2026-04-17 13:17 14.22029 77.90275 22708 ft 393 kts 12°
2026-04-17 13:17 14.24738 77.90765 23053 ft 396 kts 12°
2026-04-17 13:18 14.27448 77.91256 23385 ft 398 kts 11°
2026-04-17 13:18 14.30216 77.91756 23642 ft 403 kts 11°
2026-04-17 13:18 14.33009 77.92262 23935 ft 407 kts 11°
2026-04-17 13:18 14.35813 77.92769 24249 ft 409 kts 11°
2026-04-17 13:19 14.38600 77.93273 24556 ft 411 kts 11°
2026-04-17 13:19 14.41432 77.93785 24859 ft 413 kts 11°
2026-04-17 13:19 14.44285 77.94302 25135 ft 416 kts 11°
2026-04-17 13:19 14.47156 77.94822 25420 ft 418 kts 11°
2026-04-17 13:20 14.50038 77.95328 25691 ft 421 kts 10°
2026-04-17 13:20 14.52942 77.95819 25957 ft 424 kts
2026-04-17 13:20 14.55868 77.96310 26236 ft 426 kts
2026-04-17 13:20 14.58809 77.96805 26512 ft 428 kts
2026-04-17 13:21 14.61765 77.97302 26765 ft 430 kts
2026-04-17 13:21 14.64745 77.97805 27032 ft 432 kts
2026-04-17 13:21 14.67726 77.98309 27287 ft 434 kts
2026-04-17 13:21 14.70719 77.98814 27530 ft 437 kts
2026-04-17 13:22 14.73737 77.99326 27794 ft 438 kts
2026-04-17 13:22 14.76759 77.99837 28032 ft 441 kts
2026-04-17 13:22 14.79801 78.00352 28262 ft 443 kts
2026-04-17 13:22 14.82829 78.00864 28509 ft 445 kts
2026-04-17 13:23 14.85901 78.01383 28784 ft 446 kts
2026-04-17 13:23 14.88987 78.01906 28828 ft 447 kts
2026-04-17 13:23 14.95134 78.02948 28830 ft 448 kts
2026-04-17 13:24 15.01313 78.03996 28832 ft 448 kts
2026-04-17 13:24 15.07492 78.05045 28838 ft 448 kts
2026-04-17 13:25 15.13665 78.06093 28839 ft 448 kts
2026-04-17 13:25 15.19819 78.07140 28850 ft 448 kts
2026-04-17 13:26 15.25965 78.08184 28858 ft 448 kts
2026-04-17 13:26 15.32109 78.09228 28855 ft 448 kts
2026-04-17 13:27 15.38275 78.10270 28849 ft 447 kts
2026-04-17 13:27 15.44456 78.11277 28853 ft 448 kts
2026-04-17 13:28 15.50596 78.12277 28728 ft 449 kts
2026-04-17 13:28 15.53682 78.12779 28481 ft 447 kts
2026-04-17 13:28 15.56733 78.13277 28244 ft 444 kts
2026-04-17 13:29 15.59782 78.13775 28000 ft 441 kts
2026-04-17 13:29 15.62811 78.14269 27757 ft 438 kts
2026-04-17 13:29 15.65853 78.14766 27515 ft 437 kts
2026-04-17 13:29 15.68836 78.15253 27273 ft 437 kts
2026-04-17 13:30 15.71842 78.15745 27032 ft 435 kts
2026-04-17 13:30 15.74837 78.16236 26790 ft 432 kts
2026-04-17 13:30 15.77789 78.16719 26550 ft 430 kts
2026-04-17 13:30 15.80766 78.17207 26309 ft 428 kts
2026-04-17 13:31 15.83692 78.17687 26067 ft 426 kts
2026-04-17 13:31 15.86612 78.18165 25826 ft 425 kts
2026-04-17 13:31 15.89538 78.18644 25585 ft 423 kts
2026-04-17 13:31 15.92440 78.19120 25342 ft 420 kts
2026-04-17 13:32 15.95318 78.19591 25104 ft 418 kts
2026-04-17 13:32 15.98209 78.20065 24863 ft 416 kts
2026-04-17 13:32 16.01075 78.20535 24621 ft 415 kts
2026-04-17 13:32 16.03914 78.21001 24378 ft 413 kts
2026-04-17 13:33 16.06756 78.21468 24131 ft 411 kts
2026-04-17 13:33 16.09570 78.21929 23879 ft 409 kts
2026-04-17 13:33 16.12378 78.22389 23590 ft 407 kts
2026-04-17 13:33 16.15185 78.22850 23223 ft 404 kts
2026-04-17 13:34 16.17941 78.23302 22819 ft 402 kts
2026-04-17 13:34 16.20703 78.23757 22394 ft 399 kts
2026-04-17 13:34 16.23428 78.24205 21961 ft 396 kts
2026-04-17 13:34 16.26136 78.24650 21551 ft 392 kts
2026-04-17 13:35 16.28859 78.25096 21133 ft 388 kts
2026-04-17 13:35 16.31502 78.25530 20728 ft 385 kts
2026-04-17 13:35 16.34148 78.25963 20320 ft 382 kts
2026-04-17 13:35 16.36763 78.26391 19913 ft 379 kts
2026-04-17 13:36 16.39335 78.26814 19527 ft 376 kts
2026-04-17 13:36 16.41936 78.27241 19134 ft 373 kts
2026-04-17 13:36 16.44490 78.27659 18726 ft 370 kts
2026-04-17 13:36 16.47010 78.28072 18311 ft 367 kts
2026-04-17 13:37 16.49543 78.28488 17886 ft 365 kts
2026-04-17 13:37 16.52048 78.28899 17470 ft 362 kts
2026-04-17 13:37 16.54546 78.29309 17048 ft 359 kts 10°
2026-04-17 13:37 16.56975 78.29710 16652 ft 357 kts
2026-04-17 13:38 16.59454 78.30120 16226 ft 354 kts
2026-04-17 13:38 16.61859 78.30518 15825 ft 352 kts
2026-04-17 13:38 16.64263 78.30916 15429 ft 349 kts
2026-04-17 13:38 16.66680 78.31316 15027 ft 346 kts
2026-04-17 13:39 16.69061 78.31710 14621 ft 344 kts
2026-04-17 13:39 16.71409 78.32098 14236 ft 340 kts
2026-04-17 13:39 16.73717 78.32479 13838 ft 338 kts
2026-04-17 13:39 16.76039 78.32863 13425 ft 336 kts
2026-04-17 13:40 16.78359 78.33246 13008 ft 333 kts
2026-04-17 13:40 16.80632 78.33621 12597 ft 331 kts
2026-04-17 13:40 16.82928 78.34000 12165 ft 329 kts
2026-04-17 13:40 16.85169 78.34370 11744 ft 327 kts
2026-04-17 13:41 16.87415 78.34741 11329 ft 325 kts
2026-04-17 13:41 16.89663 78.35114 10913 ft 324 kts
2026-04-17 13:41 16.91892 78.35484 10493 ft 323 kts
2026-04-17 13:41 16.94092 78.35848 10180 ft 317 kts
2026-04-17 13:42 16.96246 78.36205 10059 ft 304 kts
2026-04-17 13:42 16.98296 78.36544 9933 ft 292 kts
2026-04-17 13:42 17.00288 78.36874 9577 ft 291 kts
2026-04-17 13:42 17.02311 78.37170 9176 ft 291 kts
2026-04-17 13:43 17.04286 78.36840 8721 ft 294 kts 338°
2026-04-17 13:43 17.05973 78.35615 8324 ft 296 kts 313°
2026-04-17 13:43 17.07089 78.33814 7976 ft 295 kts 294°
2026-04-17 13:43 17.07751 78.31807 7613 ft 294 kts 289°
2026-04-17 13:44 17.08511 78.29825 7233 ft 293 kts 297°
2026-04-17 13:44 17.09549 78.28017 6864 ft 291 kts 307°
2026-04-17 13:44 17.10853 78.26399 6494 ft 290 kts 315°
2026-04-17 13:44 17.12348 78.25016 6127 ft 288 kts 324°
2026-04-17 13:45 17.14013 78.23846 5762 ft 286 kts 331°
2026-04-17 13:45 17.15746 78.22932 5643 ft 273 kts 338°
2026-04-17 13:45 17.17484 78.22250 5592 ft 257 kts 344°
2026-04-17 13:45 17.19208 78.21787 5519 ft 254 kts 354°
2026-04-17 13:46 17.20920 78.21980 5338 ft 247 kts 29°
2026-04-17 13:46 17.22146 78.23177 5163 ft 242 kts 64°
2026-04-17 13:46 17.22628 78.24840 4998 ft 241 kts 83°
2026-04-17 13:46 17.22724 78.26589 4630 ft 244 kts 90°
2026-04-17 13:47 17.22715 78.28333 4192 ft 235 kts 91°
2026-04-17 13:47 17.22709 78.30009 3898 ft 223 kts 90°
2026-04-17 13:47 17.22724 78.31546 3720 ft 206 kts 90°
2026-04-17 13:47 17.22745 78.32999 3471 ft 190 kts 90°
2026-04-17 13:48 17.22765 78.34332 3206 ft 175 kts 90°
2026-04-17 13:48 17.22782 78.35541 2962 ft 160 kts 90°
2026-04-17 13:48 17.22800 78.36637 2751 ft 146 kts 90°
2026-04-17 13:48 17.22813 78.37705 2599 ft 145 kts 90°
2026-04-17 13:49 17.22819 78.38753 2436 ft 144 kts 89°
2026-04-17 13:49 17.22838 78.39797 2251 ft 144 kts 88°
2026-04-17 13:49 17.22861 78.40836 2111 ft 144 kts 89°
2026-04-17 13:49 17.22871 78.41891 1978 ft 142 kts 89°
2026-04-17 13:50 17.22900 78.42954 2287 ft 150 kts 88°
2026-04-17 13:50 17.22904 78.44091 2702 ft 162 kts 94°
2026-04-17 13:50 17.22886 78.45301 3143 ft 177 kts 90°
2026-04-17 13:50 17.22936 78.46643 3582 ft 195 kts 88°
2026-04-17 13:51 17.22902 78.48110 4051 ft 212 kts 102°
2026-04-17 13:51 17.22151 78.49496 4475 ft 235 kts 135°
2026-04-17 13:51 17.20677 78.50329 4960 ft 247 kts 166°
2026-04-17 13:51 17.18949 78.50510 5325 ft 252 kts 175°
2026-04-17 13:52 17.17211 78.50524 5138 ft 250 kts 178°
2026-04-17 13:52 17.15460 78.50504 5046 ft 248 kts 178°
2026-04-17 13:52 17.13740 78.50252 4992 ft 252 kts 200°
2026-04-17 13:52 17.12328 78.49191 4986 ft 256 kts 230°
2026-04-17 13:53 17.11577 78.47512 4986 ft 259 kts 259°
2026-04-17 13:53 17.11387 78.45619 4989 ft 259 kts 266°
2026-04-17 13:53 17.11321 78.43731 4987 ft 259 kts 268°
2026-04-17 13:53 17.11279 78.41872 4985 ft 259 kts 268°
2026-04-17 13:54 17.11203 78.38084 4983 ft 259 kts 268°
2026-04-17 13:54 17.11167 78.36224 4983 ft 260 kts 268°
2026-04-17 13:55 17.11095 78.32453 4982 ft 259 kts 268°
2026-04-17 13:55 17.11059 78.30571 4982 ft 259 kts 268°
2026-04-17 13:55 17.10986 78.26817 4982 ft 259 kts 268°
2026-04-17 13:56 17.10918 78.23064 4734 ft 256 kts 268°
2026-04-17 13:56 17.10883 78.21198 4448 ft 253 kts 268°
2026-04-17 13:56 17.10853 78.19381 4487 ft 247 kts 268°
2026-04-17 13:57 17.10825 78.17606 4513 ft 243 kts 268°
2026-04-17 13:57 17.10875 78.15836 4519 ft 243 kts 282°
2026-04-17 13:57 17.12992 78.13335 4531 ft 237 kts 347°
2026-04-17 13:58 17.14599 78.13296 4538 ft 231 kts 19°
2026-04-17 13:58 17.16904 78.15426 4549 ft 223 kts 57°
2026-04-17 13:58 17.17756 78.16778 4538 ft 223 kts 59°
2026-04-17 13:59 17.19427 78.19521 4530 ft 223 kts 59°
2026-04-17 13:59 17.20247 78.20869 4530 ft 222 kts 59°
2026-04-17 13:59 17.21079 78.22242 4527 ft 223 kts 59°
2026-04-17 14:00 17.21911 78.23620 4522 ft 223 kts 60°
2026-04-17 14:00 17.22490 78.25116 4525 ft 221 kts 79°
2026-04-17 14:00 17.22676 78.26711 4432 ft 221 kts 88°
2026-04-17 14:00 17.22714 78.28290 4198 ft 220 kts 90°
2026-04-17 14:01 17.22718 78.29879 3983 ft 207 kts 90°
2026-04-17 14:01 17.22727 78.31319 3739 ft 191 kts 90°
2026-04-17 14:01 17.22743 78.32638 3509 ft 174 kts 90°
2026-04-17 14:01 17.22760 78.33845 3260 ft 159 kts 90°
2026-04-17 14:02 17.22776 78.34944 3044 ft 146 kts 90°
2026-04-17 14:02 17.22790 78.36010 2882 ft 145 kts 90°
2026-04-17 14:02 17.22796 78.37061 2715 ft 144 kts 90°
2026-04-17 14:02 17.22811 78.38111 2522 ft 144 kts 89°
2026-04-17 14:03 17.22831 78.39144 2380 ft 143 kts 89°
2026-04-17 14:03 17.22849 78.40195 2201 ft 143 kts 88°
2026-04-17 14:03 17.22860 78.41231 2016 ft 143 kts 88°
2026-04-17 14:03 17.22877 78.42207 1971 ft 112 kts 90°
2026-04-17 14:04 17.22880 78.42723 1989 ft 45 kts 88°
2026-04-17 14:04 17.22883 78.42969 1999 ft 21 kts 88°
2026-04-17 14:04 17.22886 78.43105 2004 ft 16 kts 90°
2026-04-17 14:04 17.22887 78.43216 2007 ft 14 kts 89°
2026-04-17 14:05 17.22899 78.43319 2009 ft 14 kts 75°
2026-04-17 14:05 17.22932 78.43424 2014 ft 16 kts 64°
2026-04-17 14:05 17.22955 78.43469 2016 ft 1 kts 61°
2026-04-17 14:05 17.22968 78.43494 2017 ft 1 kts 61°
2026-04-17 14:06 17.22974 78.43505 2018 ft 8 kts 60°
2026-04-17 14:06 17.23000 78.43548 2019 ft 5 kts 58°
2026-04-17 14:06 17.23024 78.43588 2021 ft 9 kts 58°
2026-04-17 14:07 17.23062 78.43643 2022 ft 8 kts 52°
2026-04-17 14:07 17.23112 78.43699 2023 ft 13 kts 34°
2026-04-17 14:07 17.23214 78.43710 2022 ft 11 kts 356°
2026-04-17 14:07 17.23267 78.43707 2021 ft 8 kts 356°
2026-04-17 14:08 17.23328 78.43702 2019 ft 9 kts 355°
2026-04-17 14:08 17.23404 78.43697 2017 ft 12 kts 356°
2026-04-17 14:08 17.23503 78.43694 2013 ft 15 kts
2026-04-17 14:08 17.23599 78.43694 2012 ft 10 kts 358°
2026-04-17 14:09 17.23674 78.43679 2009 ft 7 kts 316°
2026-04-17 14:09 17.23682 78.43617 2006 ft 4 kts 267°
2026-04-17 14:09 17.23681 78.43569 2004 ft 8 kts 268°
2026-04-17 14:09 17.23680 78.43493 2002 ft 12 kts 270°
2026-04-17 14:10 17.23679 78.43417 2000 ft 6 kts 269°
2026-04-17 14:10 17.23674 78.43378 2000 ft 4 kts 242°
2026-04-17 14:10 17.23650 78.43362 2000 ft 3 kts 189°
2026-04-17 14:10 17.23632 78.43363 2001 ft 1 kts 177°
2026-04-17 14:11 17.23615 78.43364 2002 ft 2 kts 176°
2026-04-17 14:11 17.23614 78.43364 2002 ft 0 kts 176°